K2MIT Weather Reports


Display with metric or nautical units.
time (UTC)temp
F
wind
direction
speed
MPH
gust
MPH
rain 1hr
in
rain 24hr
in
rain mn
in
humidity
%
barometer
mb
20260904094542 72 281 1.0 3.0 0.00 0.28 0.28 92 1010.2
20260904093041 72 0 0.0 0.0 0.00 0.28 0.28 92 1010.3
20260904091550 72 0 0.0 0.0 0.00 0.28 0.28 92 1010.2
20260904090038 72 0 0.0 0.0 0.00 0.28 0.28 92 1010.3
20260904084538 72 0 0.0 0.0 0.00 0.29 0.28 92 1010.2
20260904083046 73 0 0.0 0.0 0.00 0.29 0.28 92 1010.0
20260904081540 73 0 0.0 0.0 0.00 0.29 0.28 91 1010.1
20260904080039 73 0 0.0 0.0 0.00 0.29 0.28 92 1010.3
20260904074557 73 0 0.0 2.0 0.00 0.31 0.28 91 1010.3
20260904073040 73 0 0.0 0.0 0.00 0.31 0.28 91 1010.0
20260904071605 73 0 0.0 2.0 0.00 0.31 0.28 91 1009.8
20260904070039 73 0 0.0 2.0 0.01 0.31 0.28 91 1010.3
20260904064556 73 237 0.0 2.0 0.01 0.33 0.28 91 1010.6
20260904063048 73 0 0.0 0.0 0.28 0.33 0.28 91 1010.6
20260904061538 73 0 0.0 0.0 0.28 0.33 0.28 91 1010.7
20260904060039 73 0 0.0 0.0 0.27 0.32 0.27 90 1010.4
20260904054540 74 0 0.0 3.0 0.27 0.39 0.27 90 1011.2
20260904053045 74 0 0.0 0.0 0.00 0.12 0.00 89 1011.2
20260904051539 74 0 0.0 0.0 0.00 0.12 0.00 89 1011.3
20260904050042 74 0 0.0 0.0 0.00 0.12 0.00 89 1011.2
20260904044540 74 0 0.0 0.0 0.00 0.17 0.00 89 1011.3
20260904043040 74 0 0.0 0.0 0.00 0.17 0.00 89 1011.5
20260904041542 74 0 0.0 0.0 0.00 0.17 0.00 89 1011.8
20260904040040 74 0 0.0 0.0 0.00 0.17 0.00 89 1011.8
20260904034539 74 0 0.0 0.0 0.00 0.17 0.17 88 1011.6
20260904033041 74 0 0.0 0.0 0.00 0.17 0.17 88 1011.4
20260904031546 74 0 0.0 0.0 0.00 0.17 0.17 87 1011.5
20260904030041 75 0 0.0 0.0 0.00 0.17 0.17 87 1011.7
20260904024539 75 0 0.0 0.0 0.00 0.17 0.17 86 1012.1
20260904023036 75 0 0.0 0.0 0.00 0.17 0.17 86 1012.2
20260904021545 75 0 0.0 0.0 0.00 0.17 0.17 87 1012.5
20260904020040 75 0 0.0 0.0 0.00 0.17 0.17 87 1012.4
20260904014544 75 0 0.0 0.0 0.00 0.17 0.17 86 1012.7
20260904013040 76 0 0.0 0.0 0.00 0.17 0.17 85 1012.6
20260904011543 76 0 0.0 0.0 0.00 0.17 0.17 84 1012.8
20260904010039 77 0 0.0 0.0 0.00 0.17 0.17 82 1012.3
20260904004540 77 0 0.0 0.0 0.00 0.17 0.17 82 1012.3
20260904003039 76 0 0.0 0.0 0.00 0.17 0.17 83 1012.5
20260904001539 78 0 0.0 0.0 0.00 0.17 0.17 77 1012.3
20260904000040 78 0 0.0 0.0 0.00 0.17 0.17 79 1012.1
20260903234539 79 0 0.0 0.0 0.00 0.17 0.17 77 1011.9
20260903233045 80 0 0.0 1.0 0.00 0.17 0.17 74 1011.8
20260903231537 81 0 0.0 1.0 0.00 0.17 0.17 73 1011.6
20260903230042 82 94 0.0 2.0 0.00 0.17 0.17 73 1011.8
20260903224544 83 0 0.0 0.0 0.00 0.17 0.17 70 1012.0
20260903223039 84 0 0.0 0.0 0.00 0.17 0.17 68 1012.0
20260903221546 85 0 0.0 0.0 0.00 0.17 0.17 65 1012.2
20260903220038 85 0 0.0 0.0 0.00 0.17 0.17 64 1011.9
20260903214540 86 57 0.0 2.0 0.00 0.17 0.17 63 1012.1
20260903213040 85 313 1.0 3.0 0.00 0.17 0.17 64 1011.7
20260903211547 85 284 1.0 4.0 0.00 0.17 0.17 64 1012.1
20260903210040 85 310 0.0 2.0 0.00 0.17 0.17 66 1012.1
20260903204542 86 297 1.0 7.0 0.00 0.17 0.17 63 1012.0
20260903203048 85 0 0.0 2.0 0.00 0.17 0.17 66 1011.9
20260903201537 86 253 2.0 4.0 0.00 0.17 0.17 64 1012.1
20260903200046 86 276 3.0 7.0 0.00 0.17 0.17 62 1012.0
20260903194543 85 221 2.0 8.0 0.00 0.27 0.17 64 1012.1
20260903193039 86 304 2.0 6.0 0.00 0.27 0.17 64 1012.1
20260903191540 86 184 1.0 8.0 0.00 0.27 0.17 63 1012.3
20260903190039 83 345 2.0 4.0 0.00 0.27 0.17 65 1012.5
20260903184538 84 308 2.0 8.0 0.00 0.31 0.17 65 1012.7
20260903183041 83 257 3.0 6.0 0.00 0.31 0.17 66 1012.7
20260903181539 83 198 4.0 10.0 0.00 0.31 0.17 67 1012.6
20260903180058 82 274 4.0 9.0 0.00 0.31 0.17 68 1013.2
20260903174539 81 285 2.0 8.0 0.00 0.31 0.17 69 1013.0
20260903173042 83 311 3.0 11.0 0.00 0.31 0.17 67 1013.3
20260903171548 81 301 4.0 10.0 0.00 0.31 0.17 70 1013.7
20260903170100 81 340 3.0 12.0 0.00 0.31 0.17 72 1013.8
20260903164542 80 233 2.0 9.0 0.00 0.31 0.17 73 1013.7
20260903163043 79 315 3.0 10.0 0.00 0.31 0.17 76 1013.8
20260903161538 78 296 3.0 11.0 0.00 0.31 0.17 76 1014.0
20260903160038 77 269 3.0 12.0 0.00 0.31 0.17 78 1014.6
20260903154539 76 190 7.0 14.0 0.00 0.31 0.17 79 1014.7
20260903153037 76 295 3.0 8.0 0.00 0.31 0.17 80 1014.5
20260903151538 75 307 4.0 9.0 0.00 0.31 0.17 83 1014.6
20260903150038 74 248 2.0 6.0 0.00 0.31 0.17 83 1014.7
20260903144540 74 351 2.0 7.0 0.00 0.31 0.17 85 1014.7
20260903143034 73 304 2.0 11.0 0.00 0.31 0.17 85 1015.0
20260903141540 73 254 2.0 9.0 0.00 0.31 0.17 85 1014.7
20260903140040 73 219 1.0 9.0 0.00 0.31 0.17 87 1014.7
20260903134535 72 225 2.0 11.0 0.00 0.31 0.17 89 1015.0
20260903133040 71 232 3.0 7.0 0.00 0.31 0.17 90 1014.9
20260903131542 70 225 2.0 5.0 0.00 0.31 0.17 91 1014.6
20260903124537 69 221 2.0 4.0 0.00 0.31 0.17 92 1015.4
20260903123037 69 0 0.0 2.0 0.00 0.31 0.17 92 1015.5
20260903121545 69 0 0.0 0.0 0.00 0.31 0.17 92 1015.4
20260903120039 68 303 1.0 6.0 0.00 0.31 0.17 92 1015.6
20260903114539 68 203 0.0 3.0 0.00 0.31 0.17 92 1015.5
20260903113043 68 0 0.0 3.0 0.00 0.31 0.17 92 1015.6
20260903111538 68 203 0.0 2.0 0.00 0.31 0.17 92 1015.5
20260903110108 68 0 0.0 4.0 0.00 0.31 0.17 92 1015.4
20260903104538 68 254 1.0 6.0 0.00 0.31 0.17 92 1015.2
20260903103042 68 234 0.0 3.0 0.00 0.31 0.17 92 1015.8
20260903101539 68 229 0.0 3.0 0.00 0.31 0.17 92 1015.3
20260903100038 68 208 1.0 7.0 0.00 0.31 0.17 92 1014.9